anno,mese,giorni_lavorativi,dipendenti,tot_cum_giornate_lavorative,tot_giornate_assenza,tot_giornate_presenza,perc_assenza_totale,perc_assenza_ferie_permessi,perc_assenza_malattia,perc_assenza_congedo,perc_presenza
2012,1,21,9,189,31,158,16.40,12.70,0.53,3.17,83.60
2012,2,21,9,189,14,175,7.41,3.17,4.23,0.00,92.59
2012,3,22,9,198,12,186,6.06,5.05,1.01,0.00,93.94
2012,4,20,9,180,25,146,14.62,8.77,0.00,5.85,85.38
2012,5,22,9,198,20,178,10.10,5.56,2.02,2.53,89.90
2012,6,21,9,189,25,164,13.23,4.76,8.47,0.00,86.77
2012,7,22,9,198,45,153,22.73,14.14,1.52,7.07,77.27
2012,8,21,9,189,130,59,68.78,49.21,0.00,19.58,31.22
2012,9,20,9,180,40,140,22.22,5.56,0.56,16.11,77.78
2012,10,23,9,207,80,127,38.65,5.31,0.97,32.37,61.35
2012,11,21,9,189,69,120,36.51,1.59,0.53,34.39,63.49
2012,12,19,9,171,84,87,49.12,18.13,0.00,30.99,50.88
2013,1,22,9,198,78,120,39.39,6.06,1.52,31.82,60.61
2013,2,20,9,180,58,122,32.22,7.22,1.11,23.89,67.78
2013,3,21,9,189,46,143,24.34,0.53,1.59,22.22,75.66
2013,4,21,9,189,47,133,26.11,3.33,0.56,22.22,73.89
2013,5,22,9,198,44,154,22.22,4.04,0.00,18.18,77.78
2013,6,20,9,180,40,140,22.22,9.44,0.00,12.78,77.78
2013,7,23,9,207,20,187,9.66,7.25,0.48,1.93,90.34
2013,8,20,9,180,136,44,75.56,73.33,0.00,2.22,24.44
2013,9,21,9,189,30,159,15.87,13.23,1.06,1.59,84.13
2013,10,23,9,207,58,149,28.02,3.86,12.56,11.59,71.98
2013,11,20,9,180,31,149,17.22,3.33,1.67,12.22,82.78
2013,12,20,9,180,41,139,22.78,22.78,0.00,0.00,77.22
2014,1,21,9,189,17,151,10.12,8.33,1.19,0.60,89.88
2014,2,20,9,180,35,125,21.88,7.50,1.88,12.50,78.13
2014,3,21,9,189,27,141,16.07,1.79,1.79,12.50,83.93
2014,4,21,9,189,27,133,16.88,4.38,0.00,12.50,83.13
2014,5,21,9,189,31,137,18.45,5.95,0.00,12.50,81.55
2014,6,20,9,180,31,129,19.38,5.63,1.25,12.50,80.63
2014,7,23,9,207,47,137,25.54,13.04,0.00,12.50,74.46
2014,8,20,9,180,110,50,68.75,68.75,0.00,0.00,31.25
2014,9,22,9,198,34,142,19.32,11.36,1.70,6.25,80.68
2014,10,23,9,207,32,152,17.39,3.80,1.09,12.50,82.61
2014,11,20,9,180,23,137,14.38,6.88,0.00,7.50,85.63
2014,12,20,9,180,36,124,22.50,21.25,0.00,1.25,77.50
2015,1,20,9,180,34,126,21.25,13.13,7.50,0.63,78.75
2015,2,20,9,180,25,135,15.63,8.13,7.50,0.00,84.38
2015,3,22,9,198,2,174,1.14,1.14,0.00,0.00,98.86
2015,4,22,9,198,19,149,11.31,8.93,2.38,0.00,88.69
2015,5,20,9,180,9,151,5.63,4.38,1.25,0.00,94.38
2015,6,21,9,189,14,154,8.33,7.14,1.19,0.00,91.67
2015,7,23,9,207,27,157,14.67,11.96,2.17,0.54,85.33
2015,8,21,9,189,149,40,78.84,78.31,0.00,0.53,21.16
2015,9,22,9,198,21,177,10.61,9.60,0.51,0.51,89.39
2015,10,22,9,198,14,184,7.07,5.05,2.02,0.00,92.93
2015,11,21,9,189,14,175,7.41,5.29,2.12,0.00,92.59
2015,12,21,9,189,64,125,33.86,28.57,5.29,0.00,66.14
2016,1,19,9,171,22,149,12.87,11.44,0.00,1.17,87.13
2016,2,21,9,189,10,179,5.29,4.14,0.44,0.53,94.71
2016,3,23,9,207,26,172,13.13,10.77,0.00,2.44,86.87
2016,4,20,9,180,15,165,8.33,6.67,1.11,0.56,91.67
2016,5,22,9,198,19,179,9.60,9.39,0.00,0.00,90.40
2016,6,21,9,189,20,169,10.58,9.35,0.00,1.06,89.42
2016,7,21,9,189,36,153,19.05,17.10,0.53,1.59,80.95
2016,8,22,9,198,129,70,65.15,63.38,1.52,0.00,35.35
2016,9,22,9,198,18,180,9.09,4.46,3.54,1.01,90.91
2016,10,21,9,189,17,172,8.99,5.73,1.06,2.35,91.01
2016,11,21,9,189,17,172,8.99,5.26,0.00,3.48,91.01
2016,12,20,9,180,51,129,28.33,26.09,0.00,2.20,71.67
2017,1,21,9,189,40.74,148.26,21.56,13.4,1.06,6.08,78.44
2017,2,20,9,180,40.36,139.64,22.42,6.57,0,13.49,77.58
2017,3,23,9,207,64.3,142.7,31.06,2.33,1.45,25.71,68.94
2017,4,18,9,162,62.51,99.49,38.59,11.01,0,27.58,61.41
2017,5,21,9,189,59.39,129.61,31.42,1.59,1.06,26.9,68.58
2017,6,21,9,189,57.67,131.33,30.51,0.53,0,29.08,69.49
2017,7,21,9,189,61.67,127.33,32.63,3.09,1.06,27.96,67.37
2017,8,22,9,198,139.74,58.26,70.57,52.02,0,18.18,29.43
2017,9,21,9,189,71,118,37.57,6.35,0,31.22,62.43
2017,10,22,9,198,69.83,128.17,35.27,1.43,0,33.84,64.73
2017,11,21,9,189,66.83,122.17,35.36,5.73,0,29.1,64.64
2017,12,18,9,162,77.18,84.82,47.64,22.53,3.09,21.03,52.36
2018,1,22,9,198,73.94,124.06,37.35,16.84,0,20.51,62.65
2018,2,20,9,180,43.91,136.09,24.39,2.13,0,20.96,75.61
2018,3,22,9,198,55.5,142.5,28.03,14.65,3.03,10.35,71.97
2018,4,19,9,171,32.94,138.06,19.27,6.92,1.17,10.01,80.73
2018,5,21,9,189,36.47,152.53,19.30,4,1.06,7.44,80.70
2018,6,21,9,189,47.21,141.79,24.98,11.11,0.23,8.05,75.02
2018,7,22,9,198,53.47,144.53,27,17.42,0,6.71,73
2018,8,22,9,198,108.11,89.89,54.6,49.16,0,4.43,45.4
2018,9,20,9,180,35.72,144.28,19.85,13.8,0,5.49,80.15
2018,10,23,9,207,6.25,200.75,3.02,0.97,0,0,96.98
2018,11,21,9,189,15.07,173.93,7.97,3.09,1.06,3.83,92.03
2018,12,19,9,171,41.54,129.46,24.29,22.42,0,0.58,75.71
2019,1,22,9,198,60.17,137.83,30.39,16.33,2.53,10.10,69.61
2019,2,20,9,180,24.82,155.18,13.79,4.91,0,8.33,86.21
2019,3,21,9,189,22.92,166.08,12.13,5.2,1.59,2.12,87.87
2019,4,20,9,180,26.83,153.17,14.91,8.61,0,2.22,85.09
2019,5,22,9,198,31.85,166.15,16.08,9.69,0.51,0,83.92
2019,6,20,8,160,13.74,146.26,8.59,4.72,0,0,91.41
2019,7,23,8,184,35.82,148.18,19.47,11.32,0.54,1.09,80.53
2019,8,21,8,168,111.39,56.61,66.3,65.81,0,0,33.7
2019,9,21,8,168,14.93,153.07,8.89,2.12,0,1.79,91.11
2019,10,23,8,184,18,166,9.78,3.26,0,0.54,90.22
2019,11,20,8,160,25.57,134.43,15.98,3.13,3.13,2.5,84.02
2019,12,20,8,160,41.39,118.61,25.87,20.48,0,1.88,74.13
2020,1,21,8,168,24.56,143.44,14.62,9.85,0.6,4.17,85.38
2020,2,20,8,160,22.11,137.89,13.82,0.63,8.13,3.13,86.18
2020,3,22,8,176,24,152,13.64,0,5.68,6.25,86.36
2020,4,21,8,168,0.63,167.38,0.37,0,0,0,99.63
2020,5,19,8,152,3.52,148.48,2.32,1.97,0,0,97.68
2020,6,21,8,168,4.11,163.89,2.45,1.44,0,0,97.55
2020,7,23,8,184,14.97,169.03,8.14,7.61,0,0,91.86
2020,8,21,8,168,125,43,74.4,71.43,2.98,0,25.6
2020,9,22,8,176,1,175,0.57,0,0,0,99.43
2020,10,22,8,176,12,164,6.82,1.14,0,5.68,93.18
2020,11,21,8,168,21.42,146.58,12.75,0.25,0,12.5,87.25
2020,12,21,10,210,58.78,151.22,27.99,13.33,0,10.48,72.01
2021,1,19,10,190,34.03,155.97,17.91,2.85,0,12.63,82.09
2021,2,20,10,200,39.17,160.83,19.58,2.14,1,12.5,80.42
2021,3,23,10,230,32.44,197.56,14.11,0.43,3.04,7.49,85.89
2021,4,21,10,210,25.2,184.8,12,1.43,0,7.24,88
2021,5,21,10,210,19.67,190.33,9.37,0.48,0,7.46,90.63
2021,6,21,10,210,30.67,179.33,14.6,4.57,0,8.13,85.4
2021,7,22,10,220,42.44,177.56,19.29,10,0,7.93,80.71
2021,8,22,10,220,173.44,46.56,78.84,71.82,0,5.66,21.16
2021,9,22,10,220,30.53,189.47,13.88,4.28,0,7.32,86.12
2021,10,21,10,210,25.67,184.33,12.22,1.51,0,7.83,87.78
2021,11,21,10,210,34.85,175.15,16.59,4.64,1.43,6.72,83.41
2021,12,22,10,210,66.38,153.63,30.17,21.77,0,4.9,69.83
2022,1,20,10,200,35.99,164.01,17.99,14.42,0,2,82.01
2022,2,20,10,200,7.5,192.5,3.75,1.5,0,1,96.25
2022,3,23,10,230,19.47,210.53,8.47,6.07,0,0,91.53
2022,4,19,10,190,23.06,166.94,12.13,8.71,0,0,87.87
2022,5,22,9,198,26.01,171.99,13.14,8.59,0,1.52,86.86
2022,6,21,9,189,26.41,162.59,13.97,5.29,0,4.76,86.03
2022,7,21,10,210,49.36,160.64,23.51,15.24,2.38,2.86,76.49
2022,8,22,10,220,141.35,78.65,64.25,57.73,0,6.36,35.75
2022,9,22,10,220,15.71,204.29,7.14,3.64,0,1.36,92.86